QPF
0.00 0.00 0.00 0.00 0.00 0.00 0.00 0.00 0.00 0.00 0.00 0.00 0.00 0.00 0.00 0.00 0.00 0.01 0.01 0.01 0.01 0.00 0.00 0.00 0.00 0.00 0.00 0.00 0.01 0.00 0.01 0.01 0.01 0.01 0.03 0.01 0.01 0.01 0.03 0.02 0.08 0.06 0.03 0.01 0.00 0.00 0.00 0.00 0.00 0.00 0.00 0.01 0.02 0.04 0.04 0.02 0.03 0.03 0.01 0.03 0.03 0.05 0.02
0.00 0.00 0.00 0.00 0.00 0.00 0.00 0.00 0.00 0.00 0.00 0.00 0.00 0.00 0.00 0.00 0.00 0.00 0.00 0.01 0.01 0.01 0.01 0.01 0.01 0.00 0.00 0.00 0.00 0.00 0.00 0.01 0.01 0.03 0.02 0.01 0.02 0.01 0.01 0.01 0.03 0.04 0.05 0.02 0.01 0.00 0.00 0.00 0.00 0.00 0.00 0.00 0.02 0.03 0.05 0.07 0.05 0.04 0.02 0.01 0.01 0.03 0.01
0.00 0.00 0.00 0.00 0.00 0.00 0.00 0.00 0.00 0.00 0.00 0.00 0.00 0.00 0.01 0.01 0.01 0.01 0.01 0.01 0.01 0.01 0.01 0.01 0.01 0.01 0.01 0.00 0.02 0.01 0.01 0.01 0.04 0.02 0.02 0.03 0.01 0.01 0.01 0.01 0.02 0.06 0.04 0.03 0.03 0.01 0.00 0.00 0.01 0.01 0.00 0.00 0.01 0.02 0.03 0.06 0.09 0.09 0.07 0.02 0.01 0.01 0.00
0.00 0.00 0.00 0.00 0.00 0.00 0.00 0.00 0.00 0.00 0.01 0.01 0.01 0.02 0.01 0.01 0.01 0.01 0.01 0.01 0.01 0.00 0.01 0.01 0.01 0.02 0.02 0.04 0.02 0.02 0.01 0.01 0.01 0.01 0.01 0.02 0.01 0.03 0.01 0.01 0.01 0.02 0.03 0.03 0.05 0.03 0.01 0.01 0.01 0.01 0.01 0.01 0.01 0.01 0.03 0.06 0.12 0.13 0.14 0.09 0.08 0.02 0.02
0.00 0.00 0.00 0.00 0.00 0.00 0.00 0.00 0.00 0.00 0.00 0.00 0.00 0.00 0.00 0.00 0.00 0.00 0.00 0.00 0.00 0.00 0.00 0.01 0.01 0.01 0.01 0.02 0.03 0.02 0.04 0.05 0.02 0.01 0.02 0.01 0.01 0.01 0.01 0.01 0.03 0.03 0.02 0.09 0.04 0.04 0.03 0.01 0.01 0.01 0.01 0.02 0.02 0.03 0.03 0.05 0.08 0.13 0.16 0.16 0.13 0.08 0.03
0.00 0.00 0.00 0.00 0.00 0.00 0.00 0.00 0.00 0.00 0.00 0.00 0.00 0.00 0.00 0.00 0.00 0.00 0.00 0.00 0.00 0.00 0.00 0.01 0.02 0.01 0.02 0.01 0.02 0.03 0.02 0.04 0.04 0.03 0.01 0.01 0.02 0.03 0.03 0.02 0.01 0.02 0.04 0.04 0.02 0.04 0.04 0.03 0.02 0.02 0.02 0.02 0.02 0.03 0.04 0.05 0.06 0.08 0.13 0.18 0.19 0.17 0.12
0.01 0.01 0.00 0.00 0.00 0.00 0.00 0.00 0.00 0.00 0.00 0.00 0.00 0.00 0.00 0.00 0.00 0.00 0.00 0.00 0.00 0.00 0.00 0.00 0.01 0.02 0.02 0.02 0.03 0.03 0.02 0.03 0.03 0.03 0.02 0.04 0.03 0.05 0.03 0.04 0.03 0.02 0.01 0.01 0.02 0.07 0.03 0.04 0.04 0.02 0.02 0.02 0.02 0.02 0.03 0.04 0.06 0.07 0.08 0.11 0.15 0.16 0.14
0.01 0.01 0.01 0.01 0.00 0.00 0.00 0.00 0.00 0.00 0.00 0.00 0.00 0.00 0.00 0.00 0.00 0.00 0.00 0.00 0.00 0.00 0.01 0.00 0.00 0.01 0.02 0.02 0.03 0.03 0.03 0.02 0.03 0.03 0.03 0.03 0.04 0.03 0.02 0.03 0.04 0.04 0.03 0.02 0.02 0.02 0.03 0.05 0.03 0.05 0.03 0.03 0.03 0.03 0.03 0.03 0.04 0.06 0.06 0.07 0.09 0.12 0.14
0.02 0.02 0.02 0.01 0.01 0.01 0.01 0.00 0.00 0.00 0.00 0.00 0.00 0.00 0.00 0.00 0.00 0.00 0.00 0.00 0.00 0.00 0.00 0.01 0.01 0.00 0.01 0.02 0.02 0.03 0.03 0.02 0.02 0.04 0.03 0.02 0.02 0.03 0.03 0.03 0.03 0.04 0.03 0.02 0.02 0.02 0.02 0.02 0.02 0.02 0.03 0.04 0.04 0.04 0.03 0.02 0.02 0.02 0.03 0.05 0.06 0.08 0.10
0.02 0.02 0.02 0.02 0.02 0.01 0.01 0.01 0.00 0.00 0.00 0.00 0.00 0.00 0.00 0.00 0.00 0.00 0.00 0.00 0.00 0.00 0.00 0.00 0.01 0.01 0.00 0.01 0.02 0.03 0.03 0.02 0.02 0.02 0.03 0.01 0.01 0.02 0.03 0.03 0.03 0.03 0.02 0.02 0.02 0.02 0.03 0.02 0.01 0.01 0.01 0.02 0.02 0.02 0.02 0.02 0.02 0.02 0.02 0.03 0.06 0.08 0.09
0.02 0.02 0.02 0.02 0.02 0.02 0.02 0.01 0.01 0.00 0.00 0.00 0.00 0.00 0.00 0.00 0.00 0.00 0.00 0.00 0.00 0.00 0.00 0.00 0.00 0.01 0.01 0.01 0.01 0.02 0.03 0.03 0.02 0.01 0.02 0.01 0.00 0.03 0.03 0.04 0.03 0.01 0.01 0.01 0.01 0.01 0.03 0.04 0.01 0.00 0.00 0.00 0.01 0.01 0.01 0.02 0.02 0.01 0.01 0.02 0.03 0.06 0.08
0.02 0.02 0.02 0.02 0.02 0.02 0.02 0.02 0.01 0.01 0.01 0.01 0.01 0.01 0.00 0.00 0.00 0.00 0.00 0.00 0.00 0.00 0.00 0.00 0.00 0.01 0.01 0.01 0.01 0.01 0.01 0.01 0.01 0.01 0.01 0.01 0.01 0.02 0.01 0.02 0.04 0.03 0.02 0.01 0.01 0.02 0.03 0.04 0.03 0.00 0.00 0.00 0.00 0.00 0.00 0.01 0.02 0.02 0.02 0.02 0.02 0.02 0.04
0.03 0.02 0.02 0.02 0.02 0.02 0.02 0.01 0.01 0.01 0.01 0.01 0.01 0.01 0.01 0.01 0.00 0.00 0.00 0.00 0.00 0.00 0.00 0.00 0.00 0.00 0.00 0.00 0.01 0.01 0.01 0.01 0.00 0.00 0.00 0.00 0.00 0.00 0.02 0.02 0.01 0.01 0.02 0.03 0.02 0.01 0.01 0.01 0.02 0.02 0.00 0.00 0.00 0.00 0.00 0.00 0.01 0.01 0.02 0.03 0.02 0.01 0.01
0.02 0.02 0.02 0.02 0.02 0.02 0.02 0.02 0.01 0.01 0.01 0.02 0.02 0.02 0.02 0.02 0.02 0.01 0.01 0.00 0.00 0.00 0.00 0.00 0.00 0.00 0.00 0.00 0.00 0.01 0.01 0.00 0.00 0.00 0.00 0.00 0.00 0.00 0.00 0.00 0.01 0.02 0.01 0.01 0.02 0.02 0.01 0.00 0.01 0.01 0.01 0.00 0.01 0.00 0.00 0.00 0.00 0.00 0.01 0.01 0.02 0.02 0.01
0.01 0.01 0.01 0.01 0.01 0.01 0.01 0.01 0.01 0.01 0.01 0.02 0.02 0.03 0.03 0.03 0.02 0.02 0.02 0.01 0.01 0.00 0.00 0.00 0.00 0.00 0.00 0.00 0.00 0.00 0.01 0.01 0.00 0.00 0.00 0.00 0.00 0.00 0.00 0.00 0.01 0.01 0.02 0.01 0.01 0.00 0.00 0.00 0.00 0.00 0.00 0.01 0.00 0.00 0.00 0.00 0.00 0.00 0.00 0.00 0.00 0.01 0.02
0.01 0.01 0.00 0.00 0.01 0.01 0.01 0.01 0.01 0.01 0.01 0.02 0.04 0.07 0.11 0.07 0.03 0.03 0.02 0.01 0.01 0.00 0.00 0.00 0.00 0.00 0.00 0.00 0.00 0.00 0.00 0.00 0.01 0.01 0.00 0.00 0.00 0.00 0.00 0.00 0.00 0.01 0.03 0.01 0.01 0.00 0.00 0.00 0.00 0.00 0.00 0.00 0.00 0.00 0.00 0.00 0.01 0.00 0.01 0.01 0.01 0.01 0.02
0.00 0.01 0.01 0.00 0.00 0.00 0.00 0.00 0.00 0.01 0.01 0.01 0.01 0.04 0.09 0.14 0.12 0.07 0.03 0.01 0.01 0.01 0.00 0.00 0.00 0.00 0.00 0.00 0.00 0.00 0.00 0.00 0.01 0.01 0.01 0.00 0.00 0.00 0.00 0.00 0.00 0.00 0.01 0.02 0.01 0.01 0.01 0.00 0.00 0.00 0.00 0.00 0.00 0.01 0.02 0.02 0.02 0.02 0.02 0.02 0.02 0.02 0.02
0.00 0.00 0.01 0.01 0.00 0.00 0.00 0.00 0.00 0.00 0.00 0.00 0.00 0.01 0.02 0.02 0.04 0.05 0.03 0.01 0.01 0.01 0.01 0.00 0.00 0.00 0.00 0.00 0.00 0.00 0.00 0.00 0.01 0.01 0.00 0.00 0.00 0.00 0.00 0.00 0.00 0.00 0.00 0.00 0.03 0.02 0.01 0.01 0.01 0.00 0.00 0.00 0.00 0.01 0.01 0.02 0.03 0.02 0.01 0.01 0.01 0.00 0.01
0.00 0.00 0.00 0.00 0.00 0.00 0.00 0.00 0.00 0.00 0.00 0.00 0.00 0.00 0.01 0.01 0.02 0.02 0.02 0.02 0.02 0.02 0.01 0.00 0.00 0.00 0.00 0.00 0.00 0.00 0.00 0.00 0.00 0.00 0.00 0.00 0.00 0.00 0.00 0.00 0.00 0.00 0.00 0.00 0.01 0.02 0.03 0.04 0.02 0.01 0.01 0.00 0.00 0.01 0.01 0.01 0.01 0.01 0.01 0.01 0.00 0.00 0.00
0.00 0.00 0.00 0.00 0.00 0.00 0.01 0.01 0.00 0.00 0.00 0.00 0.00 0.00 0.00 0.00 0.00 0.01 0.03 0.03 0.02 0.04 0.04 0.02 0.00 0.00 0.00 0.00 0.00 0.00 0.00 0.00 0.00 0.00 0.00 0.00 0.00 0.00 0.00 0.00 0.00 0.00 0.00 0.00 0.01 0.01 0.01 0.01 0.02 0.01 0.01 0.00 0.01 0.01 0.01 0.02 0.02 0.02 0.01 0.01 0.01 0.00 0.00
0.01 0.00 0.00 0.00 0.00 0.01 0.01 0.01 0.00 0.00 0.00 0.00 0.00 0.00 0.00 0.00 0.00 0.00 0.01 0.02 0.02 0.02 0.02 0.03 0.03 0.02 0.01 0.01 0.01 0.00 0.00 0.01 0.01 0.01 0.01 0.01 0.00 0.00 0.00 0.00 0.01 0.01 0.01 0.03 0.01 0.01 0.01 0.01 0.01 0.01 0.01 0.01 0.01 0.01 0.01 0.02 0.02 0.03 0.02 0.02 0.02 0.02 0.01
0.01 0.00 0.00 0.01 0.01 0.01 0.01 0.00 0.00 0.00 0.00 0.00 0.00 0.00 0.00 0.00 0.00 0.00 0.00 0.00 0.00 0.01 0.01 0.01 0.02 0.02 0.03 0.03 0.03 0.02 0.03 0.02 0.03 0.04 0.04 0.02 0.01 0.00 0.00 0.00 0.01 0.01 0.03 0.01 0.01 0.02 0.02 0.02 0.02 0.01 0.01 0.01 0.01 0.01 0.01 0.02 0.02 0.02 0.02 0.03 0.03 0.03 0.02
0.01 0.01 0.00 0.00 0.00 0.01 0.00 0.00 0.00 0.00 0.00 0.00 0.00 0.00 0.00 0.00 0.00 0.00 0.00 0.00 0.00 0.00 0.01 0.01 0.00 0.00 0.01 0.01 0.02 0.02 0.03 0.04 0.05 0.05 0.06 0.06 0.04 0.01 0.01 0.01 0.01 0.01 0.02 0.02 0.01 0.02 0.03 0.02 0.03 0.02 0.01 0.01 0.00 0.00 0.01 0.01 0.02 0.02 0.03 0.04 0.03 0.03 0.04
0.01 0.01 0.00 0.00 0.01 0.01 0.01 0.00 0.01 0.00 0.00 0.00 0.01 0.01 0.01 0.00 0.00 0.00 0.00 0.00 0.00 0.00 0.00 0.00 0.00 0.00 0.00 0.00 0.00 0.00 0.00 0.00 0.01 0.03 0.05 0.07 0.05 0.03 0.02 0.02 0.03 0.03 0.03 0.02 0.01 0.01 0.01 0.02 0.01 0.01 0.01 0.01 0.00 0.00 0.00 0.01 0.02 0.02 0.03 0.03 0.03 0.02 0.02
0.01 0.01 0.01 0.01 0.02 0.02 0.01 0.02 0.01 0.01 0.01 0.01 0.02 0.01 0.01 0.01 0.00 0.00 0.00 0.00 0.00 0.00 0.00 0.00 0.00 0.00 0.00 0.00 0.00 0.00 0.00 0.00 0.00 0.00 0.00 0.01 0.02 0.04 0.05 0.06 0.04 0.03 0.01 0.01 0.01 0.00 0.00 0.01 0.01 0.01 0.01 0.02 0.01 0.01 0.00 0.01 0.01 0.02 0.02 0.02 0.02 0.02 0.02
0.01 0.00 0.01 0.01 0.02 0.02 0.02 0.02 0.02 0.01 0.02 0.02 0.02 0.01 0.01 0.03 0.02 0.01 0.01 0.01 0.00 0.00 0.00 0.00 0.00 0.00 0.00 0.00 0.00 0.01 0.01 0.01 0.01 0.01 0.00 0.00 0.01 0.01 0.03 0.06 0.05 0.03 0.01 0.01 0.00 0.00 0.00 0.01 0.00 0.01 0.03 0.01 0.01 0.01 0.02 0.01 0.01 0.01 0.01 0.01 0.01 0.02 0.02
0.01 0.00 0.01 0.01 0.02 0.03 0.03 0.02 0.02 0.02 0.01 0.01 0.02 0.01 0.01 0.01 0.01 0.01 0.00 0.00 0.00 0.00 0.00 0.00 0.00 0.00 0.00 0.00 0.00 0.00 0.00 0.00 0.00 0.01 0.01 0.01 0.01 0.02 0.03 0.04 0.04 0.03 0.01 0.00 0.00 0.00 0.00 0.00 0.01 0.00 0.00 0.00 0.01 0.01 0.02 0.01 0.01 0.01 0.01 0.01 0.01 0.01 0.01
0.01 0.01 0.02 0.03 0.04 0.03 0.05 0.04 0.03 0.03 0.02 0.01 0.01 0.01 0.01 0.01 0.00 0.00 0.00 0.00 0.00 0.00 0.00 0.01 0.01 0.01 0.01 0.01 0.01 0.01 0.01 0.01 0.01 0.01 0.01 0.02 0.02 0.02 0.02 0.03 0.07 0.09 0.02 0.02 0.03 0.02 0.00 0.00 0.00 0.00 0.01 0.01 0.01 0.01 0.01 0.01 0.01 0.01 0.01 0.01 0.01 0.01 0.01
0.03 0.03 0.02 0.03 0.07 0.06 0.06 0.04 0.05 0.04 0.03 0.02 0.02 0.01 0.01 0.01 0.01 0.00 0.00 0.01 0.00 0.00 0.00 0.01 0.01 0.01 0.02 0.02 0.03 0.02 0.02 0.02 0.02 0.02 0.02 0.02 0.02 0.02 0.02 0.02 0.07 0.08 0.08 0.02 0.02 0.03 0.00 0.00 0.00 0.00 0.00 0.00 0.01 0.01 0.00 0.01 0.00 0.00 0.00 0.00 0.00 0.01 0.00
0.04 0.06 0.05 0.02 0.04 0.06 0.12 0.09 0.05 0.02 0.01 0.01 0.01 0.01 0.01 0.01 0.01 0.01 0.01 0.01 0.01 0.01 0.01 0.01 0.01 0.01 0.01 0.01 0.01 0.01 0.01 0.01 0.01 0.01 0.01 0.02 0.03 0.03 0.03 0.03 0.04 0.06 0.04 0.02 0.08 0.01 0.00 0.00 0.00 0.00 0.00 0.00 0.01 0.01 0.01 0.01 0.01 0.00 0.00 0.00 0.00 0.00 0.00
0.01 0.02 0.03 0.03 0.03 0.02 0.02 0.02 0.01 0.01 0.01 0.01 0.01 0.01 0.01 0.01 0.01 0.01 0.00 0.00 0.00 0.00 0.00 0.00 0.00 0.01 0.01 0.01 0.01 0.01 0.01 0.01 0.01 0.01 0.01 0.02 0.02 0.03 0.04 0.05 0.04 0.05 0.04 0.03 0.03 0.04 0.05 0.01 0.00 0.00 0.00 0.00 0.00 0.00 0.01 0.01 0.01 0.01 0.00 0.00 0.00 0.00 0.00
0.00 0.01 0.02 0.02 0.04 0.04 0.02 0.02 0.01 0.01 0.01 0.01 0.01 0.01 0.01 0.01 0.01 0.00 0.00 0.00 0.00 0.00 0.00 0.00 0.00 0.00 0.00 0.00 0.00 0.01 0.00 0.00 0.01 0.01 0.02 0.02 0.02 0.02 0.03 0.04 0.06 0.06 0.06 0.05 0.04 0.03 0.05 0.06 0.03 0.02 0.01 0.00 0.00 0.00 0.00 0.01 0.01 0.01 0.01 0.01 0.01 0.01 0.01
0.00 0.01 0.01 0.02 0.03 0.03 0.03 0.03 0.02 0.01 0.01 0.01 0.01 0.01 0.01 0.01 0.00 0.00 0.00 0.00 0.00 0.00 0.00 0.00 0.00 0.00 0.00 0.00 0.01 0.01 0.01 0.02 0.02 0.02 0.02 0.01 0.01 0.02 0.02 0.03 0.03 0.04 0.06 0.06 0.05 0.04 0.05 0.05 0.06 0.05 0.05 0.04 0.03 0.02 0.02 0.01 0.01 0.01 0.01 0.00 0.00 0.01 0.01
0.00 0.00 0.01 0.01 0.02 0.03 0.03 0.02 0.01 0.01 0.01 0.01 0.00 0.00 0.00 0.00 0.00 0.00 0.00 0.00 0.00 0.00 0.00 0.00 0.01 0.01 0.01 0.01 0.01 0.01 0.01 0.01 0.01 0.00 0.00 0.00 0.01 0.01 0.01 0.02 0.03 0.03 0.03 0.04 0.04 0.04 0.04 0.04 0.04 0.05 0.05 0.06 0.08 0.08 0.07 0.07 0.05 0.03 0.02 0.01 0.01 0.00 0.00
0.00 0.00 0.00 0.01 0.01 0.02 0.01 0.01 0.01 0.01 0.01 0.01 0.01 0.00 0.00 0.00 0.00 0.00 0.00 0.00 0.00 0.00 0.00 0.00 0.01 0.01 0.01 0.01 0.01 0.01 0.01 0.00 0.00 0.00 0.00 0.00 0.00 0.00 0.00 0.01 0.01 0.02 0.02 0.03 0.03 0.02 0.03 0.03 0.03 0.04 0.04 0.05 0.06 0.07 0.08 0.07 0.07 0.07 0.06 0.04 0.02 0.01 0.01
0.00 0.00 0.00 0.01 0.01 0.02 0.01 0.01 0.01 0.01 0.00 0.01 0.00 0.00 0.00 0.00 0.00 0.00 0.00 0.01 0.00 0.01 0.01 0.01 0.01 0.01 0.00 0.01 0.00 0.00 0.00 0.00 0.00 0.00 0.00 0.00 0.00 0.00 0.00 0.00 0.00 0.00 0.01 0.01 0.02 0.02 0.02 0.02 0.03 0.03 0.04 0.04 0.04 0.04 0.04 0.04 0.04 0.05 0.05 0.05 0.04 0.03 0.02
MSLP
1022.10 1021.86 1021.66 1021.46 1021.22 1020.98 1020.78 1020.54 1020.26 1020.02 1019.66 1019.38 1019.14 1018.94 1018.70 1018.50 1018.42 1018.26 1018.10 1017.90 1017.66 1017.58 1017.34 1017.02 1016.82 1016.66 1016.66 1016.70 1016.50 1015.86 1015.46 1015.30 1015.38 1015.38 1015.30 1015.26 1015.38 1015.58 1015.62 1015.70 1015.58 1015.50 1015.10 1014.26 1014.06 1014.02 1014.10 1014.30 1014.54 1014.82 1014.82 1014.98 1015.06 1015.22 1015.38 1015.46 1015.62 1015.82 1015.98 1016.18 1016.30 1016.34 1016.50
1021.82 1021.58 1021.38 1021.14 1020.86 1020.66 1020.42 1020.14 1019.90 1019.66 1019.34 1019.06 1018.82 1018.62 1018.50 1018.34 1018.22 1017.98 1017.82 1017.66 1017.50 1017.06 1016.82 1016.58 1016.26 1015.98 1015.94 1016.02 1015.90 1015.58 1015.30 1015.10 1015.06 1015.06 1015.02 1014.90 1014.94 1015.02 1015.02 1015.18 1015.30 1014.98 1015.02 1014.50 1014.02 1014.14 1014.18 1014.38 1014.54 1014.62 1014.50 1014.78 1014.86 1014.98 1015.18 1015.34 1015.46 1015.66 1015.86 1015.94 1015.98 1016.06 1016.18
1021.46 1021.18 1020.98 1020.78 1020.54 1020.34 1020.10 1019.82 1019.58 1019.30 1019.10 1018.86 1018.66 1018.46 1018.22 1017.98 1017.82 1017.66 1017.42 1017.10 1016.74 1016.54 1016.46 1016.42 1016.34 1015.82 1015.34 1015.26 1015.18 1015.02 1014.90 1014.86 1014.82 1014.86 1014.86 1014.70 1014.58 1014.58 1014.54 1014.70 1014.78 1014.74 1014.54 1014.54 1013.90 1013.90 1013.90 1014.22 1014.42 1014.42 1014.34 1014.42 1014.50 1014.62 1014.90 1015.22 1015.30 1015.42 1015.66 1015.78 1015.90 1015.82 1015.82
1021.14 1020.86 1020.58 1020.30 1020.14 1019.94 1019.74 1019.54 1019.34 1019.18 1019.02 1018.86 1018.70 1018.42 1018.06 1017.78 1017.58 1017.34 1016.98 1016.66 1016.38 1016.34 1016.34 1016.30 1016.18 1015.78 1014.98 1014.58 1014.58 1014.46 1014.38 1014.30 1014.34 1014.46 1014.46 1014.34 1014.22 1014.18 1014.10 1014.18 1014.34 1014.38 1014.34 1014.06 1013.90 1013.34 1013.86 1013.86 1014.06 1014.26 1014.22 1014.34 1014.50 1014.70 1015.02 1015.14 1015.22 1015.46 1015.70 1015.82 1015.82 1015.78 1015.70
1020.82 1020.54 1020.22 1019.94 1019.70 1019.46 1019.26 1018.98 1018.78 1018.58 1018.42 1018.26 1018.10 1018.06 1017.90 1017.66 1017.46 1017.18 1016.94 1016.62 1016.42 1016.30 1016.22 1016.10 1015.90 1015.54 1015.02 1014.42 1014.14 1013.98 1013.94 1013.86 1013.86 1013.86 1013.94 1013.90 1013.74 1013.62 1013.62 1013.78 1013.94 1013.90 1013.90 1013.90 1013.74 1013.26 1013.50 1013.62 1013.86 1013.90 1014.06 1014.30 1014.58 1014.82 1015.02 1015.18 1015.34 1015.46 1015.62 1015.70 1015.78 1015.86 1015.82
1020.50 1020.18 1019.90 1019.62 1019.34 1019.06 1018.82 1018.58 1018.38 1018.18 1017.98 1017.78 1017.62 1017.50 1017.42 1017.38 1017.18 1016.94 1016.74 1016.54 1016.34 1016.14 1015.94 1015.82 1015.62 1015.34 1015.02 1014.50 1013.90 1013.54 1013.42 1013.42 1013.38 1013.46 1013.42 1013.34 1013.18 1013.14 1013.22 1013.26 1013.46 1013.54 1013.50 1013.50 1013.34 1013.06 1013.58 1013.82 1013.94 1014.02 1014.18 1014.18 1014.38 1014.62 1015.02 1015.26 1015.42 1015.50 1015.62 1015.74 1015.82 1015.78 1015.78
1020.22 1019.82 1019.54 1019.18 1018.90 1018.70 1018.46 1018.22 1017.98 1017.78 1017.58 1017.38 1017.18 1017.10 1017.10 1017.02 1016.86 1016.66 1016.46 1016.26 1016.06 1015.86 1015.70 1015.54 1015.30 1015.06 1014.74 1014.38 1013.82 1013.22 1013.02 1013.02 1013.02 1013.06 1013.06 1012.94 1012.90 1012.82 1012.90 1013.02 1013.10 1013.14 1013.26 1013.18 1013.02 1012.94 1012.90 1013.38 1013.62 1013.66 1014.02 1014.10 1014.26 1014.50 1014.62 1014.94 1015.30 1015.42 1015.38 1015.42 1015.46 1015.58 1015.62
1019.86 1019.46 1019.14 1018.78 1018.50 1018.26 1018.02 1017.78 1017.54 1017.34 1017.14 1016.98 1016.86 1016.74 1016.70 1016.58 1016.42 1016.22 1016.06 1015.86 1015.66 1015.46 1015.34 1015.18 1015.02 1014.78 1014.42 1014.06 1013.70 1013.14 1012.62 1012.62 1012.66 1012.66 1012.70 1012.54 1012.50 1012.50 1012.70 1012.90 1012.98 1012.94 1012.90 1012.90 1012.82 1012.74 1012.58 1012.82 1013.14 1013.70 1013.90 1014.06 1014.30 1014.66 1014.82 1014.70 1014.70 1014.74 1014.78 1014.98 1015.06 1015.14 1015.30
1019.46 1019.10 1018.74 1018.38 1018.10 1017.78 1017.54 1017.30 1017.06 1016.86 1016.66 1016.58 1016.50 1016.46 1016.34 1016.18 1015.94 1015.70 1015.50 1015.34 1015.18 1015.02 1014.90 1014.78 1014.54 1014.30 1014.02 1013.66 1013.26 1012.98 1012.46 1012.18 1012.26 1012.34 1012.22 1012.10 1012.18 1012.30 1012.38 1012.54 1012.62 1012.70 1012.70 1012.62 1012.62 1012.50 1012.46 1012.66 1012.90 1013.22 1013.66 1014.14 1014.30 1014.18 1013.86 1013.90 1014.22 1014.42 1014.38 1014.70 1014.98 1015.14 1015.14
1019.06 1018.70 1018.34 1017.98 1017.62 1017.34 1017.06 1016.82 1016.50 1016.22 1016.06 1015.90 1015.86 1015.86 1015.78 1015.66 1015.38 1015.18 1014.98 1014.86 1014.70 1014.46 1014.34 1014.18 1013.98 1013.66 1013.38 1013.10 1012.90 1012.70 1012.42 1012.14 1012.02 1012.02 1011.90 1011.66 1011.78 1012.02 1012.06 1012.14 1012.26 1012.26 1012.26 1012.34 1012.34 1012.30 1012.18 1012.30 1012.58 1012.66 1012.94 1013.30 1013.34 1013.26 1013.46 1013.78 1014.26 1014.38 1014.30 1014.70 1015.02 1015.02 1015.06
1018.66 1018.26 1017.82 1017.54 1017.22 1016.90 1016.58 1016.22 1015.86 1015.54 1015.26 1015.02 1014.86 1014.94 1015.02 1015.02 1014.82 1014.66 1014.46 1014.34 1014.18 1013.98 1013.74 1013.50 1013.30 1013.02 1012.82 1012.70 1012.54 1012.42 1012.18 1011.94 1011.78 1011.78 1011.82 1011.82 1011.74 1011.70 1011.78 1011.94 1012.06 1011.98 1011.86 1011.94 1012.02 1011.90 1011.94 1011.98 1012.22 1012.06 1012.10 1012.38 1012.58 1012.94 1013.18 1013.34 1013.50 1013.74 1013.90 1014.50 1014.78 1014.90 1014.90
1018.26 1017.78 1017.38 1017.02 1016.70 1016.38 1015.98 1015.62 1015.18 1014.82 1014.46 1014.26 1014.10 1014.06 1014.10 1014.14 1014.14 1013.98 1013.78 1013.62 1013.50 1013.38 1013.14 1012.90 1012.70 1012.46 1012.26 1012.18 1012.14 1012.10 1011.98 1011.78 1011.62 1011.62 1011.66 1011.66 1011.66 1011.66 1011.66 1011.70 1011.74 1011.78 1011.74 1011.82 1011.90 1011.78 1011.62 1011.54 1011.74 1011.70 1011.78 1011.94 1012.06 1012.46 1012.78 1012.86 1013.14 1013.38 1013.54 1014.02 1014.26 1014.14 1013.94
1017.74 1017.26 1016.86 1016.54 1016.22 1015.86 1015.38 1014.98 1014.50 1014.14 1013.74 1013.50 1013.30 1013.14 1013.18 1013.22 1013.26 1013.22 1013.06 1012.90 1012.82 1012.70 1012.54 1012.30 1012.06 1011.78 1011.62 1011.58 1011.62 1011.70 1011.70 1011.70 1011.54 1011.46 1011.46 1011.50 1011.54 1011.50 1011.50 1011.46 1011.46 1011.54 1011.58 1011.50 1011.54 1011.50 1011.30 1011.26 1011.26 1011.62 1011.54 1011.46 1011.74 1011.86 1012.22 1012.54 1012.90 1013.10 1013.22 1013.42 1013.62 1013.46 1013.38
1017.22 1016.70 1016.30 1015.94 1015.62 1015.22 1014.82 1014.38 1013.86 1013.42 1013.06 1012.78 1012.58 1012.42 1012.38 1012.38 1012.34 1012.30 1012.22 1012.14 1012.14 1012.06 1011.94 1011.82 1011.62 1011.34 1011.14 1011.06 1011.14 1011.26 1011.38 1011.38 1011.38 1011.38 1011.38 1011.38 1011.30 1011.22 1011.14 1011.18 1011.22 1011.30 1011.34 1011.42 1011.34 1011.18 1011.06 1010.86 1010.98 1011.14 1011.30 1011.38 1011.54 1011.78 1012.10 1012.18 1012.50 1012.62 1012.86 1012.98 1013.06 1013.06 1013.30
1016.74 1016.18 1015.78 1015.38 1015.02 1014.62 1014.14 1013.66 1013.10 1012.62 1012.22 1011.94 1011.74 1011.58 1011.54 1011.46 1011.42 1011.34 1011.30 1011.26 1011.30 1011.34 1011.34 1011.30 1011.18 1010.94 1010.70 1010.62 1010.70 1010.74 1010.94 1011.10 1011.18 1011.26 1011.26 1011.22 1011.18 1011.06 1010.90 1010.78 1010.78 1010.86 1010.94 1011.02 1011.10 1011.10 1011.02 1010.90 1010.90 1011.02 1011.10 1011.34 1011.42 1011.42 1011.46 1011.54 1011.70 1011.86 1012.14 1012.38 1012.78 1013.58 1013.86
1016.38 1015.82 1015.26 1014.82 1014.50 1014.18 1013.66 1012.98 1012.42 1012.06 1011.66 1011.26 1010.94 1010.58 1010.34 1010.38 1010.46 1010.38 1010.34 1010.38 1010.46 1010.62 1010.70 1010.78 1010.70 1010.58 1010.38 1010.26 1010.30 1010.34 1010.50 1010.70 1010.86 1011.06 1011.06 1011.02 1010.90 1010.82 1010.70 1010.50 1010.34 1010.38 1010.46 1010.58 1010.70 1010.78 1010.82 1010.74 1010.74 1010.86 1011.02 1011.18 1011.30 1011.46 1011.54 1011.70 1011.90 1012.02 1012.30 1012.66 1013.22 1013.50 1013.70
1016.06 1015.50 1014.98 1014.42 1014.02 1013.74 1013.18 1012.54 1011.94 1011.58 1011.22 1010.86 1010.50 1010.14 1009.78 1009.50 1009.46 1009.46 1009.54 1009.54 1009.66 1009.94 1010.10 1010.18 1010.18 1010.14 1009.98 1009.94 1009.90 1009.94 1010.10 1010.30 1010.54 1010.70 1010.74 1010.70 1010.62 1010.58 1010.54 1010.18 1009.98 1010.06 1010.14 1010.22 1010.34 1010.46 1010.50 1010.54 1010.58 1010.66 1010.82 1011.02 1011.22 1011.34 1011.54 1011.82 1012.14 1012.34 1012.38 1012.74 1013.14 1013.30 1013.42
1015.74 1015.06 1014.58 1014.14 1013.54 1013.14 1012.86 1012.18 1011.54 1011.10 1010.78 1010.46 1010.10 1009.82 1009.50 1009.18 1008.82 1008.66 1008.90 1008.98 1009.18 1009.30 1009.46 1009.54 1009.62 1009.66 1009.70 1009.62 1009.50 1009.54 1009.70 1009.90 1010.18 1010.34 1010.30 1010.34 1010.34 1010.38 1010.34 1010.02 1009.90 1009.90 1009.94 1009.98 1010.02 1010.10 1010.14 1010.26 1010.30 1010.42 1010.58 1010.74 1010.94 1011.18 1011.46 1011.74 1011.98 1011.86 1011.98 1012.34 1012.34 1012.58 1012.82
1015.62 1014.82 1014.10 1013.54 1013.06 1012.50 1012.22 1011.70 1011.14 1010.66 1010.30 1009.98 1009.66 1009.42 1009.18 1008.86 1008.62 1008.30 1008.42 1008.58 1008.70 1008.86 1008.90 1008.98 1009.06 1009.18 1009.22 1009.22 1009.14 1009.22 1009.30 1009.42 1009.70 1009.82 1009.78 1009.86 1009.98 1009.94 1009.82 1009.54 1009.58 1009.62 1009.74 1009.86 1009.94 1009.90 1009.98 1010.06 1010.14 1010.26 1010.38 1010.58 1010.74 1010.94 1011.14 1011.30 1011.38 1011.54 1011.90 1012.14 1012.10 1012.22 1012.70
1015.34 1014.70 1013.82 1013.06 1012.54 1011.94 1011.50 1011.18 1010.70 1010.26 1009.90 1009.62 1009.30 1009.06 1008.90 1008.70 1008.46 1008.22 1008.06 1008.14 1008.22 1008.34 1008.42 1008.46 1008.46 1008.54 1008.70 1008.74 1008.78 1008.82 1008.90 1009.02 1009.14 1009.26 1009.26 1009.38 1009.38 1009.30 1009.14 1009.06 1009.26 1009.22 1009.26 1009.42 1009.50 1009.50 1009.54 1009.70 1009.82 1009.98 1010.18 1010.38 1010.66 1010.82 1010.98 1011.10 1011.26 1011.30 1011.46 1011.58 1011.70 1011.98 1012.30
1015.02 1014.30 1013.38 1012.46 1011.86 1011.38 1010.90 1010.54 1010.22 1009.78 1009.46 1009.18 1008.94 1008.74 1008.66 1008.58 1008.38 1008.18 1008.02 1007.90 1007.86 1007.82 1007.82 1007.90 1007.94 1007.82 1007.90 1008.10 1008.22 1008.34 1008.46 1008.50 1008.58 1008.66 1008.74 1008.70 1008.58 1008.42 1008.38 1008.78 1008.82 1008.78 1008.90 1009.06 1009.22 1009.30 1009.34 1009.38 1009.50 1009.70 1009.86 1010.18 1010.46 1010.70 1010.90 1011.10 1011.22 1011.26 1011.26 1011.38 1011.46 1011.70 1012.02
1014.54 1013.70 1012.82 1011.94 1011.30 1010.78 1010.34 1009.86 1009.58 1009.30 1009.10 1008.94 1008.70 1008.54 1008.42 1008.42 1008.30 1008.10 1007.94 1007.66 1007.50 1007.50 1007.54 1007.50 1007.38 1007.42 1007.38 1007.50 1007.62 1007.78 1007.86 1007.90 1007.98 1008.10 1008.18 1007.90 1007.78 1007.94 1008.26 1008.38 1008.42 1008.42 1008.58 1008.78 1008.94 1009.02 1009.06 1009.10 1009.14 1009.46 1009.66 1009.98 1010.26 1010.50 1010.78 1011.02 1011.22 1011.34 1011.42 1011.46 1011.46 1011.58 1011.78
1014.14 1013.26 1012.38 1011.66 1010.98 1010.42 1009.94 1009.58 1009.22 1008.98 1008.86 1008.70 1008.58 1008.46 1008.26 1008.18 1008.14 1008.06 1007.90 1007.62 1007.38 1007.26 1007.18 1007.14 1007.26 1007.30 1007.42 1007.54 1007.50 1007.46 1007.38 1007.34 1007.38 1007.50 1007.50 1007.38 1007.38 1007.50 1007.74 1008.02 1008.10 1008.18 1008.30 1008.46 1008.58 1008.70 1008.70 1008.70 1008.90 1009.06 1009.30 1009.66 1009.94 1010.26 1010.66 1010.94 1011.18 1011.42 1011.66 1011.98 1012.22 1012.30 1012.30
1013.66 1012.94 1012.34 1011.70 1011.02 1010.42 1009.82 1009.38 1008.98 1008.74 1008.70 1008.66 1008.50 1008.30 1008.10 1007.90 1007.78 1007.70 1007.58 1007.46 1007.38 1007.26 1007.14 1007.10 1007.10 1007.14 1007.30 1007.38 1007.34 1007.26 1007.18 1007.10 1007.06 1007.02 1006.98 1007.02 1007.06 1007.22 1007.38 1007.62 1007.78 1007.94 1008.06 1008.14 1008.26 1008.38 1008.46 1008.42 1008.46 1008.74 1008.98 1009.34 1009.62 1010.02 1010.58 1011.14 1011.50 1011.78 1011.98 1012.34 1012.74 1012.94 1013.06
1013.66 1012.98 1012.42 1011.90 1011.30 1010.62 1009.90 1009.38 1009.02 1008.82 1008.74 1008.66 1008.46 1008.34 1008.14 1007.90 1007.66 1007.58 1007.54 1007.46 1007.22 1007.22 1007.22 1007.18 1007.18 1007.18 1007.14 1007.06 1007.02 1006.98 1006.94 1006.90 1006.86 1006.82 1006.86 1006.86 1006.90 1006.98 1007.02 1007.10 1007.30 1007.50 1007.74 1007.90 1008.02 1008.18 1008.14 1008.26 1008.34 1008.50 1008.74 1009.22 1009.94 1010.74 1011.22 1011.66 1012.18 1012.42 1012.62 1012.86 1013.10 1013.50 1013.74
1013.62 1013.14 1012.66 1012.18 1011.50 1010.82 1010.18 1009.50 1009.10 1008.98 1008.90 1008.82 1008.70 1008.54 1008.42 1008.22 1008.02 1007.82 1007.62 1007.50 1007.42 1007.42 1007.34 1007.26 1007.14 1007.02 1006.94 1006.86 1006.78 1006.74 1006.66 1006.70 1006.66 1006.70 1006.70 1006.70 1006.74 1006.78 1006.74 1006.70 1006.78 1007.10 1007.34 1007.50 1007.66 1007.82 1007.98 1007.98 1008.22 1008.38 1008.86 1009.66 1010.26 1010.66 1011.18 1011.62 1012.14 1012.54 1012.86 1012.82 1012.90 1013.34 1014.06
1013.90 1013.42 1012.94 1012.50 1011.82 1011.10 1010.34 1009.42 1009.14 1008.98 1008.86 1008.86 1008.78 1008.66 1008.50 1008.26 1008.10 1007.94 1007.74 1007.54 1007.50 1007.50 1007.46 1007.42 1007.34 1007.26 1007.18 1007.06 1007.10 1007.06 1007.06 1007.06 1007.02 1006.90 1006.74 1006.54 1006.46 1006.42 1006.46 1006.42 1006.34 1006.50 1006.78 1006.98 1007.18 1007.42 1007.58 1007.62 1007.94 1008.62 1009.38 1009.74 1010.10 1010.58 1011.06 1011.22 1011.62 1011.94 1012.30 1012.42 1012.66 1013.22 1014.14
1014.26 1013.86 1013.42 1012.94 1012.22 1011.50 1010.78 1010.10 1009.82 1009.58 1009.26 1009.02 1008.86 1008.74 1008.58 1008.50 1008.34 1008.14 1008.02 1007.82 1007.70 1007.66 1007.66 1007.54 1007.46 1007.38 1007.30 1007.26 1007.22 1007.18 1007.14 1007.18 1007.18 1007.26 1007.22 1007.02 1006.78 1006.50 1006.26 1006.22 1006.18 1006.18 1006.26 1006.34 1006.50 1006.70 1007.02 1007.46 1008.30 1008.70 1008.98 1009.38 1009.82 1010.42 1010.90 1011.14 1011.30 1011.50 1011.98 1012.26 1012.58 1013.18 1014.02
1014.74 1014.22 1013.70 1013.30 1012.66 1012.06 1011.42 1010.86 1010.58 1010.22 1009.86 1009.54 1009.30 1009.06 1008.82 1008.62 1008.46 1008.30 1008.14 1008.14 1008.10 1007.90 1007.74 1007.62 1007.54 1007.58 1007.62 1007.58 1007.58 1007.50 1007.50 1007.58 1007.54 1007.50 1007.54 1007.66 1007.46 1007.18 1006.86 1006.30 1006.02 1006.06 1006.06 1006.06 1006.38 1006.58 1006.82 1007.54 1007.94 1008.38 1008.86 1009.18 1009.74 1010.38 1010.74 1010.94 1011.02 1011.34 1011.62 1012.10 1012.14 1012.50 1013.42
1015.10 1014.58 1014.02 1013.50 1012.98 1012.50 1012.18 1011.78 1011.26 1010.62 1010.14 1009.82 1009.58 1009.42 1009.30 1009.06 1008.82 1008.58 1008.42 1008.30 1008.30 1008.14 1007.94 1007.90 1007.82 1007.86 1007.82 1007.78 1007.66 1007.62 1007.66 1007.66 1007.62 1007.62 1007.62 1007.74 1007.82 1007.66 1007.38 1007.14 1006.46 1005.86 1005.74 1005.82 1005.94 1006.30 1006.94 1007.34 1007.74 1008.30 1008.78 1009.02 1009.54 1010.30 1010.62 1010.74 1010.78 1011.26 1011.50 1011.70 1011.82 1012.50 1013.14
1015.14 1014.70 1014.18 1013.78 1013.26 1012.62 1012.26 1011.86 1011.42 1010.98 1010.54 1010.14 1009.90 1009.74 1009.62 1009.46 1009.22 1008.98 1008.74 1008.54 1008.30 1008.18 1008.18 1008.10 1008.02 1008.14 1008.06 1008.14 1008.14 1008.22 1008.26 1008.22 1008.06 1008.02 1007.98 1007.90 1007.94 1007.98 1007.94 1007.62 1007.42 1007.18 1006.30 1005.66 1005.78 1006.38 1006.70 1007.10 1007.50 1008.10 1008.54 1008.86 1009.54 1010.06 1010.54 1010.86 1011.06 1011.22 1011.50 1011.50 1011.74 1012.30 1013.02
1015.34 1014.98 1014.42 1013.98 1013.58 1012.98 1012.50 1012.14 1011.74 1011.38 1010.94 1010.62 1010.34 1010.14 1009.98 1009.82 1009.58 1009.30 1009.02 1008.82 1008.54 1008.42 1008.74 1008.78 1008.70 1008.58 1008.66 1008.62 1008.58 1008.70 1008.70 1008.70 1008.78 1008.74 1008.70 1008.46 1008.22 1008.30 1008.34 1008.18 1007.98 1007.70 1007.26 1006.34 1006.02 1006.34 1006.70 1007.10 1007.46 1007.86 1008.38 1009.02 1009.66 1010.22 1010.62 1010.94 1011.26 1011.38 1011.42 1011.62 1011.98 1012.42 1013.06
1015.58 1015.26 1014.78 1014.34 1013.94 1013.46 1013.02 1012.66 1012.22 1011.78 1011.38 1011.06 1010.78 1010.54 1010.38 1010.18 1009.94 1009.78 1009.62 1009.22 1009.22 1009.38 1009.38 1009.38 1009.30 1009.22 1009.30 1009.30 1009.34 1009.38 1009.42 1009.38 1009.34 1009.18 1008.94 1008.82 1008.74 1008.66 1008.58 1008.50 1008.34 1007.98 1007.70 1007.50 1007.14 1006.86 1007.06 1007.30 1007.58 1007.98 1008.42 1009.02 1009.62 1010.22 1010.58 1010.98 1011.22 1011.34 1011.38 1011.74 1012.30 1013.10 1013.62
1015.74 1015.54 1015.18 1014.70 1014.38 1013.94 1013.50 1013.10 1012.70 1012.26 1011.82 1011.54 1011.18 1010.94 1010.66 1010.50 1010.38 1010.22 1010.18 1010.18 1010.22 1010.10 1010.14 1010.06 1009.94 1009.90 1009.98 1009.90 1009.90 1009.82 1009.66 1009.50 1009.46 1009.34 1009.06 1008.86 1008.86 1008.82 1008.74 1008.66 1008.42 1008.30 1008.22 1008.02 1007.98 1008.02 1008.18 1008.30 1008.58 1008.86 1009.14 1009.54 1009.82 1010.18 1010.54 1010.94 1011.14 1011.38 1011.74 1012.10 1012.62 1013.22 1013.82
1016.10 1015.94 1015.82 1015.42 1015.02 1014.50 1014.06 1013.62 1013.14 1012.74 1012.42 1012.10 1011.82 1011.42 1011.14 1010.82 1010.54 1010.66 1010.78 1010.78 1010.94 1010.94 1010.98 1010.90 1010.78 1010.50 1010.38 1010.30 1010.18 1010.18 1010.06 1010.02 1010.10 1009.86 1009.54 1009.26 1008.98 1008.86 1008.82 1008.74 1008.70 1008.70 1008.66 1008.58 1008.58 1008.62 1008.74 1008.90 1009.06 1009.22 1009.42 1009.58 1009.90 1010.30 1010.66 1010.86 1011.14 1011.46 1011.66 1011.98 1012.70 1013.42 1014.18
1017.02 1016.82 1016.38 1015.86 1015.54 1015.02 1014.54 1014.10 1013.70 1013.42 1013.14 1012.82 1012.50 1012.10 1011.54 1011.26 1011.54 1011.58 1011.78 1011.86 1011.70 1011.54 1011.34 1011.22 1011.22 1010.98 1010.82 1010.66 1010.58 1010.58 1010.54 1010.54 1010.34 1010.30 1010.06 1009.90 1009.58 1009.26 1009.10 1009.02 1008.98 1009.10 1009.10 1009.10 1009.02 1009.14 1009.18 1009.26 1009.38 1009.58 1009.70 1009.90 1010.22 1010.46 1010.70 1010.98 1011.26 1011.58 1011.86 1012.30 1012.90 1013.38 1014.18
Thickness
5106 5107 5110 5112 5115 5119 5122 5126 5130 5134 5138 5143 5148 5152 5156 5160 5164 5167 5171 5174 5177 5180 5183 5188 5192 5196 5198 5199 5203 5211 5217 5222 5226 5229 5235 5239 5244 5249 5254 5260 5267 5276 5295 5315 5325 5331 5338 5343 5347 5352 5358 5364 5369 5374 5378 5383 5389 5393 5396 5398 5402 5405 5410
5105 5108 5110 5113 5116 5120 5123 5127 5131 5135 5139 5144 5149 5152 5156 5159 5163 5166 5169 5172 5176 5179 5182 5186 5189 5193 5195 5195 5199 5205 5209 5212 5216 5219 5223 5229 5232 5238 5243 5249 5255 5264 5278 5295 5308 5315 5322 5328 5332 5339 5347 5354 5359 5365 5370 5374 5379 5384 5387 5391 5395 5399 5403
5105 5108 5111 5114 5118 5121 5124 5128 5132 5136 5140 5144 5148 5152 5156 5159 5162 5165 5169 5172 5176 5179 5181 5183 5185 5190 5194 5195 5197 5201 5203 5205 5209 5210 5214 5219 5223 5228 5234 5239 5244 5251 5262 5277 5290 5298 5306 5313 5318 5326 5335 5343 5349 5354 5357 5361 5368 5373 5378 5382 5386 5392 5396
5105 5108 5112 5115 5119 5122 5126 5129 5134 5137 5140 5144 5147 5151 5154 5157 5161 5164 5168 5172 5175 5176 5178 5179 5181 5185 5191 5194 5196 5199 5200 5202 5204 5206 5208 5212 5215 5219 5226 5231 5234 5240 5249 5261 5273 5282 5292 5300 5305 5312 5321 5328 5334 5340 5344 5349 5355 5361 5367 5372 5377 5383 5388
5105 5108 5112 5116 5120 5124 5128 5132 5136 5139 5142 5145 5148 5151 5154 5156 5160 5163 5166 5170 5172 5173 5175 5177 5179 5182 5187 5192 5195 5198 5199 5200 5202 5202 5204 5207 5211 5214 5219 5222 5224 5230 5238 5247 5256 5266 5276 5284 5290 5296 5305 5313 5319 5326 5331 5336 5342 5348 5355 5362 5367 5372 5379
5106 5109 5113 5117 5121 5126 5130 5134 5137 5140 5143 5147 5149 5152 5154 5156 5159 5162 5165 5167 5169 5172 5173 5175 5178 5180 5183 5187 5193 5196 5198 5198 5199 5200 5201 5204 5207 5210 5212 5215 5218 5222 5229 5236 5243 5252 5261 5269 5275 5281 5290 5299 5306 5313 5319 5324 5329 5335 5342 5350 5357 5363 5369
5108 5111 5115 5120 5124 5128 5132 5135 5138 5142 5145 5147 5151 5153 5154 5156 5159 5161 5163 5165 5167 5170 5171 5173 5175 5178 5181 5185 5189 5194 5197 5197 5197 5199 5200 5202 5204 5206 5207 5209 5212 5216 5221 5227 5233 5241 5249 5258 5264 5269 5275 5284 5290 5297 5304 5310 5316 5324 5332 5341 5349 5356 5361
5111 5114 5118 5122 5126 5130 5133 5137 5140 5143 5146 5149 5151 5153 5154 5156 5158 5161 5163 5165 5167 5169 5170 5172 5174 5176 5180 5183 5186 5192 5195 5197 5197 5197 5199 5201 5202 5203 5203 5205 5208 5211 5215 5220 5226 5232 5239 5247 5253 5256 5262 5269 5274 5281 5291 5301 5309 5317 5325 5333 5339 5346 5352
5115 5118 5122 5125 5129 5133 5136 5139 5142 5145 5148 5150 5152 5154 5154 5157 5159 5162 5164 5166 5167 5169 5170 5172 5174 5176 5179 5183 5186 5189 5192 5195 5196 5197 5199 5201 5201 5202 5202 5203 5205 5207 5211 5214 5219 5224 5230 5237 5243 5248 5253 5258 5265 5274 5286 5294 5299 5306 5314 5321 5326 5333 5340
5120 5123 5126 5129 5133 5136 5139 5142 5145 5148 5151 5153 5154 5155 5156 5158 5160 5163 5165 5166 5168 5170 5171 5173 5175 5177 5180 5183 5185 5187 5191 5194 5195 5196 5198 5200 5200 5201 5202 5203 5204 5206 5208 5211 5214 5219 5225 5228 5235 5243 5249 5254 5262 5271 5277 5281 5286 5293 5302 5307 5312 5320 5329
5125 5128 5131 5133 5136 5139 5142 5145 5149 5152 5154 5156 5158 5159 5159 5160 5162 5164 5166 5167 5169 5171 5172 5174 5176 5178 5180 5182 5184 5186 5189 5192 5194 5195 5196 5198 5199 5200 5201 5202 5203 5204 5207 5209 5211 5216 5220 5222 5229 5238 5245 5251 5258 5263 5267 5272 5279 5284 5290 5295 5301 5311 5319
5129 5132 5135 5138 5140 5143 5146 5149 5153 5156 5159 5161 5162 5163 5163 5163 5165 5166 5168 5169 5170 5172 5173 5175 5177 5179 5182 5183 5185 5186 5188 5190 5193 5194 5195 5196 5197 5198 5200 5201 5202 5203 5205 5207 5209 5213 5216 5220 5226 5233 5239 5247 5253 5256 5261 5267 5271 5275 5281 5286 5293 5303 5313
5134 5137 5139 5141 5143 5146 5149 5153 5156 5159 5162 5164 5165 5166 5167 5167 5168 5169 5170 5171 5172 5173 5174 5176 5178 5181 5183 5184 5185 5186 5187 5189 5191 5192 5194 5194 5196 5197 5199 5200 5202 5203 5204 5205 5207 5210 5215 5219 5224 5228 5234 5241 5246 5250 5254 5258 5263 5268 5274 5279 5286 5296 5305
5138 5141 5144 5145 5147 5150 5153 5156 5159 5162 5165 5167 5169 5169 5170 5171 5171 5172 5173 5174 5174 5175 5176 5177 5179 5181 5184 5185 5186 5186 5187 5188 5189 5190 5192 5192 5194 5196 5198 5200 5201 5202 5203 5204 5206 5209 5213 5217 5220 5224 5229 5233 5237 5242 5247 5252 5257 5263 5268 5274 5281 5286 5291
5142 5145 5147 5149 5150 5153 5156 5159 5163 5165 5168 5170 5172 5173 5174 5174 5175 5176 5176 5177 5177 5177 5177 5178 5179 5182 5184 5186 5187 5187 5187 5187 5188 5188 5189 5191 5193 5196 5197 5200 5201 5203 5204 5204 5206 5208 5211 5214 5216 5219 5222 5224 5229 5235 5241 5247 5252 5258 5263 5266 5269 5270 5275
5145 5148 5150 5152 5154 5155 5158 5162 5165 5167 5170 5172 5174 5177 5178 5179 5179 5180 5180 5180 5180 5179 5179 5179 5180 5182 5184 5186 5188 5188 5188 5187 5186 5187 5188 5190 5192 5194 5196 5199 5202 5203 5204 5205 5206 5207 5209 5211 5213 5215 5216 5219 5222 5228 5233 5238 5243 5248 5252 5255 5258 5261 5266
5148 5151 5152 5155 5157 5157 5160 5163 5167 5169 5171 5172 5175 5177 5180 5181 5182 5183 5183 5182 5182 5181 5180 5181 5181 5182 5184 5186 5188 5188 5188 5186 5186 5186 5188 5189 5191 5192 5194 5199 5202 5202 5203 5205 5206 5207 5208 5209 5211 5212 5214 5216 5218 5221 5225 5229 5233 5239 5244 5248 5252 5256 5262
5151 5154 5155 5158 5160 5161 5162 5165 5169 5170 5172 5173 5175 5177 5179 5181 5183 5184 5184 5183 5183 5183 5182 5183 5183 5183 5184 5186 5188 5188 5188 5187 5186 5187 5188 5190 5190 5191 5194 5198 5201 5201 5202 5203 5204 5205 5207 5208 5210 5211 5212 5214 5215 5218 5220 5224 5229 5234 5237 5241 5246 5252 5256
5152 5155 5159 5161 5163 5165 5166 5168 5171 5173 5174 5174 5175 5177 5178 5180 5183 5184 5184 5184 5183 5183 5183 5184 5185 5185 5185 5186 5186 5187 5188 5188 5188 5188 5190 5190 5190 5192 5196 5199 5199 5200 5201 5202 5202 5205 5206 5207 5209 5210 5211 5212 5213 5215 5218 5221 5225 5228 5230 5234 5240 5245 5247
5153 5157 5161 5164 5167 5169 5171 5171 5173 5175 5175 5176 5176 5177 5177 5179 5181 5183 5184 5184 5184 5183 5184 5184 5186 5187 5186 5186 5187 5188 5188 5189 5189 5190 5191 5191 5193 5196 5199 5199 5198 5199 5201 5201 5203 5204 5206 5207 5208 5208 5209 5210 5211 5212 5214 5217 5219 5222 5226 5230 5233 5237 5240
5157 5160 5164 5169 5171 5173 5175 5176 5177 5178 5178 5178 5177 5177 5177 5178 5179 5181 5183 5184 5184 5184 5185 5186 5187 5188 5189 5188 5188 5188 5189 5190 5191 5191 5191 5193 5197 5199 5199 5198 5198 5200 5201 5201 5202 5203 5205 5206 5207 5207 5208 5208 5208 5209 5211 5212 5213 5217 5220 5223 5225 5230 5234
5160 5164 5168 5172 5175 5177 5179 5180 5180 5180 5181 5180 5179 5178 5178 5178 5179 5180 5181 5184 5185 5185 5186 5186 5187 5189 5189 5189 5190 5190 5190 5191 5192 5192 5194 5197 5199 5200 5198 5197 5198 5200 5200 5200 5201 5202 5204 5206 5206 5207 5207 5207 5207 5207 5207 5207 5208 5210 5211 5213 5217 5221 5225
5165 5168 5171 5174 5177 5180 5182 5182 5183 5184 5183 5182 5181 5180 5180 5180 5180 5180 5182 5184 5185 5186 5186 5187 5187 5187 5188 5188 5189 5190 5191 5192 5193 5194 5196 5198 5199 5199 5198 5197 5198 5198 5199 5200 5200 5202 5203 5205 5206 5206 5206 5206 5205 5205 5204 5203 5202 5202 5202 5203 5205 5208 5212
5168 5170 5172 5175 5177 5180 5183 5184 5185 5185 5184 5183 5183 5182 5182 5183 5182 5182 5183 5183 5185 5186 5186 5187 5187 5187 5187 5187 5188 5190 5191 5192 5194 5195 5196 5198 5198 5198 5197 5197 5197 5197 5198 5199 5200 5200 5202 5203 5204 5204 5204 5204 5203 5201 5199 5196 5195 5194 5194 5194 5194 5196 5198
5169 5171 5172 5174 5176 5179 5182 5184 5185 5184 5183 5183 5183 5183 5183 5183 5184 5184 5185 5185 5186 5186 5186 5186 5187 5187 5187 5188 5189 5190 5191 5192 5194 5195 5196 5196 5197 5197 5197 5197 5197 5197 5197 5198 5198 5198 5200 5201 5201 5201 5201 5199 5196 5194 5191 5189 5187 5186 5186 5186 5186 5186 5186
5168 5169 5171 5173 5175 5177 5181 5183 5184 5184 5183 5182 5182 5182 5182 5183 5183 5184 5185 5185 5186 5185 5185 5186 5187 5187 5188 5189 5189 5190 5190 5190 5192 5192 5193 5194 5195 5196 5196 5197 5198 5197 5196 5197 5197 5197 5197 5198 5198 5197 5195 5192 5189 5188 5186 5184 5183 5181 5181 5182 5182 5179 5177
5166 5167 5168 5170 5173 5176 5180 5183 5184 5183 5182 5183 5182 5181 5182 5182 5182 5183 5184 5185 5185 5184 5184 5185 5185 5186 5187 5187 5187 5187 5187 5188 5188 5188 5190 5191 5193 5194 5195 5196 5197 5197 5196 5197 5196 5195 5196 5196 5194 5191 5188 5186 5185 5184 5182 5182 5181 5180 5179 5179 5178 5175 5171
5162 5163 5164 5166 5169 5172 5176 5179 5180 5180 5180 5181 5181 5181 5181 5182 5182 5182 5183 5183 5183 5183 5183 5184 5183 5184 5184 5184 5184 5184 5184 5184 5184 5184 5185 5187 5189 5191 5193 5195 5196 5196 5196 5196 5196 5195 5194 5192 5189 5187 5184 5183 5182 5180 5178 5178 5178 5178 5177 5176 5176 5173 5168
5157 5158 5160 5162 5164 5167 5170 5172 5174 5175 5176 5177 5178 5178 5179 5179 5180 5181 5181 5181 5181 5181 5182 5182 5182 5182 5181 5181 5181 5181 5181 5180 5180 5181 5181 5181 5182 5185 5188 5191 5194 5195 5195 5195 5194 5194 5192 5188 5185 5183 5181 5180 5179 5176 5174 5175 5175 5175 5174 5173 5173 5171 5168
5152 5154 5156 5157 5159 5162 5163 5165 5168 5170 5173 5174 5175 5174 5175 5176 5177 5178 5178 5179 5179 5179 5180 5180 5179 5179 5178 5178 5178 5178 5177 5177 5177 5178 5178 5177 5177 5179 5181 5184 5188 5192 5194 5195 5194 5192 5190 5186 5183 5181 5179 5178 5175 5172 5170 5171 5171 5171 5170 5170 5171 5169 5165
5148 5149 5151 5152 5155 5157 5159 5161 5163 5166 5169 5170 5171 5171 5171 5172 5173 5174 5175 5176 5177 5177 5177 5176 5176 5176 5175 5175 5174 5173 5172 5172 5172 5172 5172 5172 5173 5174 5174 5177 5180 5183 5187 5192 5193 5190 5187 5185 5183 5179 5177 5175 5172 5168 5166 5166 5166 5166 5166 5166 5167 5165 5162
5142 5144 5146 5147 5149 5152 5153 5155 5158 5161 5163 5165 5166 5167 5167 5168 5169 5170 5171 5173 5174 5173 5172 5171 5171 5171 5170 5169 5169 5167 5166 5166 5166 5165 5167 5168 5168 5169 5169 5171 5172 5174 5179 5184 5187 5186 5184 5182 5180 5178 5174 5171 5167 5164 5162 5161 5160 5160 5162 5162 5161 5159 5156
5138 5139 5141 5142 5144 5145 5147 5149 5152 5155 5158 5160 5161 5162 5163 5164 5165 5165 5166 5167 5167 5166 5165 5165 5166 5166 5165 5164 5163 5162 5161 5161 5161 5161 5163 5163 5164 5165 5165 5166 5167 5170 5172 5175 5177 5178 5178 5175 5174 5172 5170 5166 5163 5160 5159 5157 5156 5156 5157 5156 5153 5151 5149
5134 5135 5135 5136 5138 5140 5142 5144 5146 5149 5152 5154 5155 5157 5159 5160 5160 5161 5160 5160 5159 5158 5158 5158 5159 5160 5159 5158 5158 5157 5158 5157 5157 5158 5159 5161 5161 5161 5162 5162 5164 5165 5166 5167 5169 5169 5168 5167 5166 5164 5162 5160 5158 5156 5154 5153 5152 5152 5152 5150 5147 5144 5142
5128 5129 5129 5130 5132 5134 5136 5139 5141 5143 5146 5147 5149 5152 5154 5156 5156 5155 5153 5153 5152 5152 5151 5151 5152 5153 5154 5154 5154 5154 5153 5153 5152 5153 5154 5156 5158 5158 5159 5159 5160 5160 5160 5160 5161 5161 5160 5160 5158 5156 5155 5154 5152 5151 5149 5148 5148 5148 5147 5145 5143 5139 5135
5121 5122 5122 5124 5125 5128 5131 5133 5134 5136 5138 5140 5142 5145 5148 5149 5148 5147 5145 5145 5145 5146 5147 5147 5147 5148 5149 5150 5149 5149 5149 5149 5149 5149 5150 5151 5152 5153 5155 5155 5155 5155 5155 5155 5155 5155 5155 5154 5153 5151 5149 5148 5146 5144 5144 5143 5142 5142 5141 5140 5137 5134 5130